7 * 24
多渠道服务支持
ORS-5又名SensorSat,是美国于2017年8月26日发射的空间监视卫星,由麻省理工学院林肯实验室研发,由美国陆军第一太空作战中队负责作战控制,任务是对地球轨道航天器进行全球连续光学跟踪,监测美国卫星星座运行状态,追踪空间碎片与潜在威胁,为太空作战中心提供预警信息,配备专用光学传感器和多源成像系统,可对轨道目标进行常态化监测,服务美国太空态势感知体系建设。
美国
(US)
| 数据来源 | 国际轨道数据 |
| 星历时间: | 2026-09-12T11:42:09+0800 6小时前 查看轨道信息 |
| 半长轴: | 6941.506km |
| 偏心率: | 0.0010366 |
| 轨道倾角: | 0.048° |
| 近地点辐角 | 279.501° |
| 升交点赤经 | 218.116° |
| 平近点角 | 222.463° |
| 近地点: | 556.173km |
| 远地点: | 570.565km |
| 周期: | 95.927分钟 |
| 每日圈数: | 15.011438 |